Marion, OH

6:18 AM EST on February 24, 2018 (GMT -0500)
Marion Municipal

Weather History for KMNN - May, 2014

Change the Weather History Date:

Monday, May 5, 2014

  Actual Average (KDLZ) Record (KDLZ)
Temperature  
Mean Temperature 47 °F -  
Max Temperature 55 °F 64 °F 89 °F (1949)
Min Temperature 39 °F 41 °F 31 °F (1957)
Degree Days  
Heating Degree Days 18    
Moisture  
Dew Point 36 °F    
Average Humidity 66    
Maximum Humidity 80    
Minimum Humidity 45    
Precipitation  
Precipitation 0.00 in - - ()
Sea Level Pressure  
Sea Level Pressure 30.02 in    
Wind  
Wind Speed 8 mph (ESE)    
Max Wind Speed 14 mph    
Max Gust Speed -    
Visibility 10 miles    
Events Rain    
Averages and records for this station are not official NWS values.
T = Trace of Precipitation, MM = Missing Value Source: NWS Daily Summary

Daily Weather History Graph

Daily Weather History Graph

Search for Another Location

Airport or City:

Trip Planner

Search our weather history database for the weather conditions in past years. The results will help you decide how hot, cold, wet, or windy it might be!

Date:

Astronomy

May. 05, 2014 Rise Set
Actual Time 6:26 AM EDT 8:32 PM EDT
Civil Twilight 5:56 AM EDT 9:02 PM EDT
Nautical Twilight 5:19 AM EDT 9:39 PM EDT
Astronomical Twilight 4:39 AM EDT 10:19 PM EDT
Moon 11:44 AM EDT (5/5) 1:15 AM EDT (5/5)
Length of Visible Light 15h 06m
Length of Day
14h 06m
Waxing Crescent, 36% of the Moon is Illuminated
May 5
Waxing Crescent
May 6
First Quarter
May 14
Full
May 21
Last Quarter
May 28
New

Hourly Weather History & Observations

Time (EDT) Temp. Windchill Dew Point Humidity Pressure Visibility Wind Dir Wind Speed Gust Speed Precip Events Conditions
12:53 AM 39.9 °F 35.1 °F 33.1 °F 77% 30.09 in 10.0 mi ENE 6.9 mph - N/A   Clear
2:53 AM 41.0 °F 39.0 °F 34.0 °F 76% 30.07 in 10.0 mi ESE 3.5 mph - N/A   Clear
3:53 AM 42.1 °F 38.4 °F 35.1 °F 76% 30.06 in 10.0 mi ESE 5.8 mph - N/A   Partly Cloudy
4:53 AM 41.0 °F 37.1 °F 34.0 °F 76% 30.06 in 10.0 mi SSE 5.8 mph - N/A   Mostly Cloudy
5:53 AM 41.0 °F 38.0 °F 35.1 °F 79% 30.06 in 10.0 mi SSE 4.6 mph - N/A   Partly Cloudy
6:53 AM 42.1 °F 38.4 °F 35.1 °F 76% 30.09 in 10.0 mi South 5.8 mph - N/A   Clear
7:53 AM 43.0 °F 39.5 °F 37.0 °F 80% 30.09 in 10.0 mi ESE 5.8 mph - N/A   Mostly Cloudy
8:53 AM 44.1 °F 38.6 °F 36.0 °F 73% 30.07 in 10.0 mi SE 10.4 mph - 0.00 in   Mostly Cloudy
9:53 AM 46.0 °F 39.9 °F 36.0 °F 68% 30.04 in 10.0 mi SE 13.8 mph - N/A   Mostly Cloudy
10:53 AM 46.0 °F 40.6 °F 36.0 °F 68% 30.06 in 10.0 mi ESE 11.5 mph - 0.00 in Rain Light Rain
11:53 AM 46.9 °F - 37.0 °F 68% 30.06 in 10.0 mi ESE 10.4 mph - 0.00 in   Overcast
12:53 PM 48.0 °F - 36.0 °F 63% 30.05 in 10.0 mi East 10.4 mph - N/A   Overcast
2:53 PM 52.0 °F - 37.0 °F 57% 30.01 in 10.0 mi East 13.8 mph - N/A   Overcast
3:53 PM 55.0 °F - 37.9 °F 53% 29.98 in 10.0 mi ENE 11.5 mph - N/A   Mostly Cloudy
4:53 PM 54.0 °F - 35.1 °F 49% 29.95 in 10.0 mi East 10.4 mph - N/A   Overcast
5:53 PM 54.0 °F - 33.1 °F 45% 29.95 in 10.0 mi ESE 12.7 mph - N/A   Mostly Cloudy
6:53 PM 53.1 °F - 36.0 °F 52% 29.94 in 10.0 mi East 10.4 mph - N/A   Overcast
7:53 PM 53.1 °F - 34.0 °F 48% 29.94 in 10.0 mi ESE 6.9 mph - N/A   Overcast
8:53 PM 48.9 °F - 37.0 °F 64% 29.94 in 10.0 mi NE 5.8 mph - N/A   Mostly Cloudy
9:53 PM 46.0 °F 42.5 °F 37.0 °F 71% 29.95 in 10.0 mi NE 6.9 mph - N/A   Mostly Cloudy